Time,TemperatureF,DewpointF,PressureIn,WindDirection,WindDirectionDegrees,WindSpeedMPH,WindSpeedGustMPH,Humidity,HourlyPrecipIn,Conditions,Clouds,dailyrainin,SoftwareType,DateUTC
2013-02-23 00:00:00,30.9,26.6,29.99,South,182,15.0,15.0,84,0.00,,,0.00,Wunderground v.1.15,2013-02-23 05:00:00,
2013-02-23 00:06:00,31.1,26.8,29.99,South,180,15.0,24.0,84,0.00,,,0.00,Wunderground v.1.15,2013-02-23 05:06:00,
2013-02-23 00:08:00,31.2,26.9,29.98,South,186,15.0,24.0,84,0.00,,,0.00,Wunderground v.1.15,2013-02-23 05:08:00,
2013-02-23 00:11:00,31.2,26.6,29.98,SSE,166,14.0,24.0,83,0.00,,,0.00,Wunderground v.1.15,2013-02-23 05:11:00,
2013-02-23 00:17:00,31.4,26.8,29.98,South,175,15.0,24.0,83,0.00,,,0.00,Wunderground v.1.15,2013-02-23 05:17:00,
2013-02-23 00:24:00,31.5,26.9,29.98,South,191,16.0,24.0,83,0.00,,,0.00,Wunderground v.1.15,2013-02-23 05:24:00,
2013-02-23 00:29:00,31.6,27.0,29.98,South,190,17.0,24.0,83,0.00,,,0.00,Wunderground v.1.15,2013-02-23 05:29:00,
2013-02-23 00:36:00,31.7,26.8,29.98,South,183,18.0,24.0,82,0.00,,,0.00,Wunderground v.1.15,2013-02-23 05:36:00,
2013-02-23 00:41:00,31.7,27.0,29.97,South,190,20.0,24.0,82,0.00,,,0.00,weatherlink.com 1.10,2013-02-23 05:41:00,
2013-02-23 00:47:00,31.8,26.9,29.98,South,184,18.0,24.0,82,0.00,,,0.00,Wunderground v.1.15,2013-02-23 05:47:00,
2013-02-23 00:54:00,31.9,27.0,29.98,South,189,17.0,24.0,82,0.00,,,0.00,Wunderground v.1.15,2013-02-23 05:54:00,
2013-02-23 01:00:00,31.9,27.0,29.98,South,182,15.0,15.0,82,0.00,,,0.00,Wunderground v.1.15,2013-02-23 06:00:00,
2013-02-23 01:05:00,31.9,27.0,29.99,South,187,14.0,26.0,82,0.00,,,0.00,Wunderground v.1.15,2013-02-23 06:05:00,
2013-02-23 01:10:00,31.9,27.0,29.98,South,180,15.0,21.0,82,0.00,,,0.00,weatherlink.com 1.10,2013-02-23 06:10:00,
2013-02-23 01:16:00,32.0,27.1,29.98,South,182,14.0,26.0,82,0.00,,,0.00,Wunderground v.1.15,2013-02-23 06:16:00,
2013-02-23 01:22:00,32.0,26.8,29.98,SSE,157,14.0,26.0,81,0.00,,,0.00,Wunderground v.1.15,2013-02-23 06:22:00,
2013-02-23 01:28:00,32.0,26.8,29.97,SSE,161,15.0,26.0,81,0.00,,,0.00,Wunderground v.1.15,2013-02-23 06:28:00,
2013-02-23 01:34:00,32.0,27.1,29.98,SSE,167,15.0,26.0,82,0.00,,,0.00,Wunderground v.1.15,2013-02-23 06:34:00,
2013-02-23 01:39:00,32.1,26.9,29.98,South,185,14.0,26.0,81,0.00,,,0.00,Wunderground v.1.15,2013-02-23 06:39:00,
2013-02-23 01:46:00,32.1,27.2,29.97,SSE,149,15.0,26.0,82,0.00,,,0.00,Wunderground v.1.15,2013-02-23 06:46:00,
2013-02-23 01:52:00,32.0,27.1,29.96,South,186,15.0,26.0,82,0.00,,,0.00,Wunderground v.1.15,2013-02-23 06:52:00,
2013-02-23 01:57:00,32.0,27.1,29.97,SSW,192,15.0,26.0,82,0.00,,,0.00,Wunderground v.1.15,2013-02-23 06:57:00,
2013-02-23 02:04:00,32.0,27.1,29.97,South,171,15.0,24.0,82,0.00,,,0.00,Wunderground v.1.15,2013-02-23 07:04:00,
2013-02-23 02:10:00,32.0,27.1,29.97,SSW,207,16.0,16.0,82,0.00,,,0.00,Wunderground v.1.15,2013-02-23 07:10:00,
2013-02-23 02:15:00,32.0,27.1,29.95,South,189,14.0,24.0,82,0.00,,,0.00,Wunderground v.1.15,2013-02-23 07:15:00,
2013-02-23 02:22:00,32.0,27.1,29.96,SSW,196,14.0,24.0,82,0.00,,,0.00,Wunderground v.1.15,2013-02-23 07:22:00,
2013-02-23 02:28:00,32.0,27.1,29.96,SSW,192,12.0,24.0,82,0.00,,,0.00,Wunderground v.1.15,2013-02-23 07:28:00,
2013-02-23 02:33:00,32.1,27.2,29.95,South,190,12.0,24.0,82,0.00,,,0.00,Wunderground v.1.15,2013-02-23 07:33:00,
2013-02-23 02:41:00,32.0,27.0,29.95,SSW,197,11.0,19.0,82,0.00,,,0.00,weatherlink.com 1.10,2013-02-23 07:41:00,
2013-02-23 02:46:00,32.0,27.1,29.96,SSW,194,12.0,24.0,82,0.00,,,0.00,Wunderground v.1.15,2013-02-23 07:46:00,
2013-02-23 02:51:00,32.0,27.1,29.95,SSW,192,12.0,12.0,82,0.00,,,0.00,Wunderground v.1.15,2013-02-23 07:51:00,
2013-02-23 02:58:00,32.0,27.4,29.95,South,182,14.0,24.0,83,0.00,,,0.00,Wunderground v.1.15,2013-02-23 07:58:00,
2013-02-23 03:04:00,32.0,27.4,29.94,South,184,13.0,19.0,83,0.00,,,0.00,Wunderground v.1.15,2013-02-23 08:04:00,
2013-02-23 03:09:00,32.0,27.4,29.94,South,187,13.0,19.0,83,0.00,,,0.00,Wunderground v.1.15,2013-02-23 08:09:00,
2013-02-23 03:16:00,32.0,27.4,29.94,SSW,200,14.0,21.0,83,0.00,,,0.00,Wunderground v.1.15,2013-02-23 08:16:00,
2013-02-23 03:22:00,32.1,27.5,29.93,South,185,14.0,19.0,83,0.00,,,0.00,Wunderground v.1.15,2013-02-23 08:22:00,
2013-02-23 03:27:00,32.0,28.0,29.93,South,188,15.0,21.0,84,0.00,,,0.00,weatherlink.com 1.10,2013-02-23 08:27:00,
2013-02-23 03:33:00,32.0,27.4,29.93,SSW,194,14.0,19.0,83,0.00,,,0.00,Wunderground v.1.15,2013-02-23 08:33:00,
2013-02-23 03:40:00,32.1,27.8,29.92,SSE,164,15.0,19.0,84,0.00,,,0.00,Wunderground v.1.15,2013-02-23 08:40:00,
2013-02-23 03:45:00,32.1,27.8,29.94,SSW,196,15.0,19.0,84,0.00,,,0.00,Wunderground v.1.15,2013-02-23 08:45:00,
2013-02-23 03:51:00,32.1,27.8,29.93,South,176,15.0,19.0,84,0.00,,,0.00,Wunderground v.1.15,2013-02-23 08:51:00,
2013-02-23 03:57:00,32.0,28.0,29.93,South,179,11.0,19.0,84,0.00,,,0.00,weatherlink.com 1.10,2013-02-23 08:57:00,
2013-02-23 04:02:00,32.1,27.8,29.93,South,184,14.0,22.0,84,0.00,,,0.00,Wunderground v.1.15,2013-02-23 09:02:00,
2013-02-23 04:07:00,32.1,27.8,29.94,SSW,197,14.0,22.0,84,0.00,,,0.00,Wunderground v.1.15,2013-02-23 09:07:00,
2013-02-23 04:13:00,32.1,28.1,29.94,South,188,12.0,22.0,85,0.00,,,0.00,Wunderground v.1.15,2013-02-23 09:13:00,
2013-02-23 04:20:00,32.1,28.1,29.93,SSW,196,11.0,11.0,85,0.00,,,0.00,Wunderground v.1.15,2013-02-23 09:20:00,
2013-02-23 04:25:00,32.1,28.4,29.93,South,177,11.0,16.0,86,0.00,,,0.00,Wunderground v.1.15,2013-02-23 09:25:00,
2013-02-23 04:32:00,32.0,28.3,29.93,SSW,192,12.0,22.0,86,0.00,,,0.00,Wunderground v.1.15,2013-02-23 09:32:00,
2013-02-23 04:38:00,32.0,28.3,29.93,SSW,194,12.0,22.0,86,0.00,,,0.00,Wunderground v.1.15,2013-02-23 09:38:00,
2013-02-23 04:44:00,32.1,28.4,29.92,SSE,158,13.0,22.0,86,0.00,,,0.00,Wunderground v.1.15,2013-02-23 09:44:00,
2013-02-23 04:50:00,32.1,28.7,29.93,SSW,198,13.0,13.0,87,0.00,,,0.00,Wunderground v.1.15,2013-02-23 09:50:00,
2013-02-23 04:55:00,32.0,28.6,29.93,South,187,11.0,22.0,87,0.00,,,0.00,Wunderground v.1.15,2013-02-23 09:55:00,
2013-02-23 05:04:00,31.9,28.8,29.93,SSW,201,11.0,19.0,88,0.00,,,0.00,Wunderground v.1.15,2013-02-23 10:04:00,
2013-02-23 05:10:00,32.0,29.1,29.92,SSW,202,11.0,11.0,89,0.00,,,0.00,Wunderground v.1.15,2013-02-23 10:10:00,
2013-02-23 05:16:00,32.3,29.7,29.92,South,190,12.0,19.0,90,0.00,,,0.00,Wunderground v.1.15,2013-02-23 10:16:00,
2013-02-23 05:22:00,32.2,29.6,29.93,South,188,11.0,19.0,90,0.00,,,0.00,Wunderground v.1.15,2013-02-23 10:22:00,
2013-02-23 05:27:00,32.0,30.0,29.92,South,190,14.0,18.0,91,0.00,,,0.00,weatherlink.com 1.10,2013-02-23 10:27:00,
2013-02-23 05:33:00,31.9,29.6,29.92,SW,214,13.0,19.0,91,0.00,,,0.00,Wunderground v.1.15,2013-02-23 10:33:00,
2013-02-23 05:40:00,31.7,29.6,29.92,SSW,193,12.0,19.0,92,0.00,,,0.00,Wunderground v.1.15,2013-02-23 10:40:00,
2013-02-23 05:46:00,31.7,29.6,29.92,South,173,13.0,19.0,92,0.00,,,0.00,Wunderground v.1.15,2013-02-23 10:46:00,
2013-02-23 05:51:00,31.7,29.6,29.91,South,190,13.0,19.0,92,0.00,,,0.00,Wunderground v.1.15,2013-02-23 10:51:00,
2013-02-23 05:56:00,31.7,30.0,29.91,South,185,13.0,21.0,92,0.00,,,0.00,weatherlink.com 1.10,2013-02-23 10:56:00,
2013-02-23 06:02:00,31.7,29.6,29.91,South,188,13.0,18.0,92,0.00,,,0.00,Wunderground v.1.15,2013-02-23 11:02:00,
2013-02-23 06:08:00,31.7,29.9,29.91,South,185,14.0,21.0,93,0.00,,,0.00,Wunderground v.1.15,2013-02-23 11:08:00,
2013-02-23 06:13:00,31.7,29.9,29.90,SSW,195,14.0,21.0,93,0.00,,,0.00,Wunderground v.1.15,2013-02-23 11:13:00,
2013-02-23 06:20:00,31.8,30.0,29.91,South,187,14.0,14.0,93,0.00,,,0.00,Wunderground v.1.15,2013-02-23 11:20:00,
2013-02-23 06:26:00,31.8,30.0,29.91,South,171,12.0,21.0,93,0.00,,,0.00,Wunderground v.1.15,2013-02-23 11:26:00,
2013-02-23 06:31:00,31.9,30.1,29.91,South,182,11.0,21.0,93,0.00,,,0.00,Wunderground v.1.15,2013-02-23 11:31:00,
2013-02-23 06:38:00,31.9,30.1,29.91,SSW,196,12.0,21.0,93,0.00,,,0.00,Wunderground v.1.15,2013-02-23 11:38:00,
2013-02-23 06:43:00,31.9,30.0,29.91,SSE,165,6.0,17.0,93,0.00,,,0.00,weatherlink.com 1.10,2013-02-23 11:43:00,
2013-02-23 06:49:00,31.9,30.1,29.91,South,174,10.0,21.0,93,0.00,,,0.00,Wunderground v.1.15,2013-02-23 11:49:00,
2013-02-23 06:56:00,32.0,30.2,29.90,South,183,10.0,21.0,93,0.00,,,0.00,Wunderground v.1.15,2013-02-23 11:56:00,
2013-02-23 07:02:00,32.0,30.2,29.90,South,190,10.0,13.0,93,0.00,,,0.00,Wunderground v.1.15,2013-02-23 12:02:00,
2013-02-23 07:07:00,32.0,30.2,29.90,South,188,11.0,21.0,93,0.00,,,0.00,Wunderground v.1.15,2013-02-23 12:07:00,
2013-02-23 07:12:00,32.1,30.0,29.91,South,188,11.0,15.0,93,0.00,,,0.00,weatherlink.com 1.10,2013-02-23 12:12:00,
2013-02-23 07:18:00,32.1,30.3,29.90,South,175,10.0,21.0,93,0.00,,,0.00,Wunderground v.1.15,2013-02-23 12:18:00,
2013-02-23 07:23:00,32.2,30.4,29.91,South,190,10.0,21.0,93,0.00,,,0.00,Wunderground v.1.15,2013-02-23 12:23:00,
2013-02-23 07:29:00,32.3,30.5,29.91,South,190,11.0,21.0,93,0.00,,,0.00,Wunderground v.1.15,2013-02-23 12:29:00,
2013-02-23 07:36:00,32.4,30.6,29.91,SSW,205,11.0,21.0,93,0.00,,,0.00,Wunderground v.1.15,2013-02-23 12:36:00,
2013-02-23 07:42:00,32.5,31.0,29.91,South,189,10.0,15.0,93,0.00,,,0.00,weatherlink.com 1.10,2013-02-23 12:42:00,
2013-02-23 07:48:00,32.5,30.7,29.91,South,190,10.0,21.0,93,0.00,,,0.00,Wunderground v.1.15,2013-02-23 12:48:00,
2013-02-23 07:54:00,32.6,30.8,29.91,SSW,200,11.0,13.0,93,0.00,,,0.00,Wunderground v.1.15,2013-02-23 12:54:00,
2013-02-23 08:00:00,32.8,31.0,29.91,SSW,211,12.0,12.0,93,0.00,,,0.00,Wunderground v.1.15,2013-02-23 13:00:00,
2013-02-23 08:06:00,32.9,31.1,29.91,SW,225,12.0,18.0,93,0.00,,,0.00,Wunderground v.1.15,2013-02-23 13:06:00,
2013-02-23 08:12:00,33.0,31.0,29.91,SSW,210,13.0,20.0,93,0.00,,,0.00,weatherlink.com 1.10,2013-02-23 13:12:00,
2013-02-23 08:18:00,33.1,31.3,29.91,SSW,192,11.0,18.0,93,0.00,,,0.00,Wunderground v.1.15,2013-02-23 13:18:00,
2013-02-23 08:24:00,33.1,31.3,29.91,SSW,192,11.0,18.0,93,0.00,,,0.00,Wunderground v.1.15,2013-02-23 13:24:00,
2013-02-23 08:29:00,33.2,31.4,29.91,SSW,193,12.0,12.0,93,0.00,,,0.00,Wunderground v.1.15,2013-02-23 13:29:00,
2013-02-23 08:36:00,33.3,31.5,29.90,South,176,11.0,18.0,93,0.00,,,0.00,Wunderground v.1.15,2013-02-23 13:36:00,
2013-02-23 08:42:00,33.3,31.8,29.90,South,189,11.0,18.0,94,0.00,,,0.00,Wunderground v.1.15,2013-02-23 13:42:00,
2013-02-23 08:48:00,33.4,31.9,29.90,SSW,205,12.0,20.0,94,0.00,,,0.00,Wunderground v.1.15,2013-02-23 13:48:00,
2013-02-23 08:54:00,33.4,31.9,29.90,SSW,194,10.0,20.0,94,0.00,,,0.00,Wunderground v.1.15,2013-02-23 13:54:00,
2013-02-23 09:00:00,33.5,32.0,29.89,South,186,10.0,11.0,94,0.00,,,0.00,Wunderground v.1.15,2013-02-23 14:00:00,
2013-02-23 09:06:00,33.5,32.0,29.89,SSW,194,11.0,18.0,94,0.00,,,0.00,Wunderground v.1.15,2013-02-23 14:06:00,
2013-02-23 09:12:00,33.6,32.3,29.88,South,190,11.0,15.0,95,0.00,,,0.00,Wunderground v.1.15,2013-02-23 14:12:00,
2013-02-23 09:18:00,33.7,32.4,29.88,South,178,12.0,18.0,95,0.00,,,0.00,Wunderground v.1.15,2013-02-23 14:18:00,
2013-02-23 09:24:00,33.8,32.5,29.88,SSW,196,12.0,18.0,95,0.00,,,0.00,Wunderground v.1.15,2013-02-23 14:24:00,
2013-02-23 09:30:00,33.9,32.6,29.87,SSE,155,11.0,11.0,95,0.00,,,0.00,Wunderground v.1.15,2013-02-23 14:30:00,
2013-02-23 09:36:00,33.9,32.6,29.87,South,171,11.0,18.0,95,0.00,,,0.00,Wunderground v.1.15,2013-02-23 14:36:00,
2013-02-23 09:42:00,34.0,32.7,29.86,SSE,157,11.0,18.0,95,0.00,,,0.00,Wunderground v.1.15,2013-02-23 14:42:00,
2013-02-23 09:50:00,34.0,32.7,29.84,SSE,165,11.0,18.0,95,0.00,,,0.00,Wunderground v.1.15,2013-02-23 14:50:00,
2013-02-23 09:56:00,34.0,32.7,29.84,SSE,165,12.0,18.0,95,0.00,,,0.00,Wunderground v.1.15,2013-02-23 14:56:00,
2013-02-23 10:02:00,34.1,33.1,29.84,SSE,152,13.0,17.0,96,0.00,,,0.00,Wunderground v.1.15,2013-02-23 15:02:00,
2013-02-23 10:08:00,34.3,33.3,29.84,South,188,12.0,21.0,96,0.00,,,0.00,Wunderground v.1.15,2013-02-23 15:08:00,
2013-02-23 10:13:00,34.6,34.0,29.85,South,186,8.0,16.0,96,0.00,,,0.00,weatherlink.com 1.10,2013-02-23 15:13:00,
2013-02-23 10:20:00,34.6,33.6,29.85,SSW,211,10.0,21.0,96,0.00,,,0.01,Wunderground v.1.15,2013-02-23 15:20:00,
2013-02-23 10:26:00,34.7,33.4,29.85,SW,223,9.0,21.0,95,0.00,,,0.01,Wunderground v.1.15,2013-02-23 15:26:00,
2013-02-23 10:32:00,34.7,33.7,29.85,SSW,210,9.0,21.0,96,0.00,,,0.01,Wunderground v.1.15,2013-02-23 15:32:00,
2013-02-23 10:38:00,34.8,33.8,29.85,SSW,198,8.0,21.0,96,0.00,,,0.01,Wunderground v.1.15,2013-02-23 15:38:00,
2013-02-23 10:43:00,34.9,33.6,29.85,SSW,196,9.0,21.0,95,0.00,,,0.01,Wunderground v.1.15,2013-02-23 15:43:00,
2013-02-23 10:50:00,35.0,33.7,29.86,SSW,212,7.0,21.0,95,0.00,,,0.01,Wunderground v.1.15,2013-02-23 15:50:00,
2013-02-23 10:55:00,35.0,33.7,29.86,SSW,193,6.0,21.0,95,0.00,,,0.01,Wunderground v.1.15,2013-02-23 15:55:00,
2013-02-23 11:01:00,35.0,33.7,29.86,SSW,197,5.0,21.0,95,0.00,,,0.01,Wunderground v.1.15,2013-02-23 16:01:00,
2013-02-23 11:07:00,35.1,33.8,29.86,South,188,6.0,21.0,95,0.00,,,0.01,Wunderground v.1.15,2013-02-23 16:07:00,
2013-02-23 11:13:00,35.2,34.0,29.86,South,189,6.0,11.0,95,0.01,,,0.01,weatherlink.com 1.10,2013-02-23 16:13:00,
2013-02-23 11:20:00,35.2,33.9,29.86,SSW,201,7.0,7.0,95,0.00,,,0.01,Wunderground v.1.15,2013-02-23 16:20:00,
2013-02-23 11:25:00,35.1,33.5,29.86,South,191,7.0,21.0,94,0.00,,,0.01,Wunderground v.1.15,2013-02-23 16:25:00,
2013-02-23 11:32:00,35.0,33.7,29.86,SSW,198,6.0,21.0,95,0.00,,,0.01,Wunderground v.1.15,2013-02-23 16:32:00,
2013-02-23 11:38:00,35.1,33.8,29.86,SSW,198,5.0,21.0,95,0.00,,,0.01,Wunderground v.1.15,2013-02-23 16:38:00,
2013-02-23 11:44:00,35.2,33.9,29.86,South,180,7.0,21.0,95,0.00,,,0.01,Wunderground v.1.15,2013-02-23 16:44:00,
2013-02-23 11:50:00,35.4,34.1,29.85,South,182,8.0,21.0,95,0.00,,,0.01,Wunderground v.1.15,2013-02-23 16:50:00,
2013-02-23 11:56:00,35.6,34.6,29.85,South,184,9.0,21.0,96,0.00,,,0.01,Wunderground v.1.15,2013-02-23 16:56:00,
2013-02-23 12:01:00,35.9,34.9,29.85,South,184,9.0,11.0,96,0.00,,,0.02,Wunderground v.1.15,2013-02-23 17:01:00,
2013-02-23 12:08:00,36.0,34.7,29.84,SSW,196,10.0,15.0,95,0.00,,,0.02,Wunderground v.1.15,2013-02-23 17:08:00,
2013-02-23 12:13:00,36.1,34.8,29.84,South,189,10.0,15.0,95,0.00,,,0.02,Wunderground v.1.15,2013-02-23 17:13:00,
2013-02-23 12:19:00,36.2,34.9,29.84,South,180,11.0,11.0,95,0.00,,,0.03,Wunderground v.1.15,2013-02-23 17:19:00,
2013-02-23 12:25:00,36.4,35.1,29.83,South,183,10.0,15.0,95,0.00,,,0.03,Wunderground v.1.15,2013-02-23 17:25:00,
2013-02-23 12:32:00,36.6,35.3,29.83,SW,215,11.0,15.0,95,0.00,,,0.03,Wunderground v.1.15,2013-02-23 17:32:00,
2013-02-23 12:37:00,36.8,35.5,29.82,South,186,11.0,15.0,95,0.00,,,0.03,Wunderground v.1.15,2013-02-23 17:37:00,
2013-02-23 12:43:00,37.1,35.5,29.82,SSW,192,10.0,15.0,94,0.00,,,0.03,Wunderground v.1.15,2013-02-23 17:43:00,
2013-02-23 12:50:00,37.1,35.3,29.83,South,184,9.0,15.0,93,0.00,,,0.03,Wunderground v.1.15,2013-02-23 17:50:00,
2013-02-23 12:56:00,37.1,35.3,29.82,SSW,194,8.0,15.0,93,0.00,,,0.03,Wunderground v.1.15,2013-02-23 17:56:00,
2013-02-23 13:04:00,37.1,35.3,29.82,South,176,9.0,16.0,93,0.00,,,0.04,Wunderground v.1.15,2013-02-23 18:04:00,
2013-02-23 13:10:00,36.9,35.1,29.83,SW,225,8.0,8.0,93,0.00,,,0.04,Wunderground v.1.15,2013-02-23 18:10:00,
2013-02-23 13:15:00,36.8,35.0,29.82,SW,215,5.0,14.0,93,0.02,,,0.04,weatherlink.com 1.10,2013-02-23 18:15:00,
2013-02-23 13:22:00,36.8,35.0,29.83,SSW,196,4.0,16.0,93,0.00,,,0.04,Wunderground v.1.15,2013-02-23 18:22:00,
2013-02-23 13:28:00,36.8,35.0,29.82,SSW,194,3.0,16.0,93,0.00,,,0.04,Wunderground v.1.15,2013-02-23 18:28:00,
2013-02-23 13:33:00,36.7,35.1,29.82,SSW,197,4.0,16.0,94,0.00,,,0.04,Wunderground v.1.15,2013-02-23 18:33:00,
2013-02-23 13:40:00,36.7,35.1,29.82,SSW,194,4.0,16.0,94,0.00,,,0.04,Wunderground v.1.15,2013-02-23 18:40:00,
2013-02-23 13:45:00,36.6,35.0,29.82,SSW,205,1.0,7.0,94,0.01,,,0.04,weatherlink.com 1.10,2013-02-23 18:45:00,
2013-02-23 13:52:00,36.6,35.0,29.81,SSW,203,2.0,16.0,94,0.00,,,0.04,Wunderground v.1.15,2013-02-23 18:52:00,
2013-02-23 13:58:00,36.7,35.1,29.81,SSW,196,3.0,16.0,94,0.00,,,0.04,Wunderground v.1.15,2013-02-23 18:58:00,
2013-02-23 14:04:00,36.8,35.2,29.81,SSW,206,4.0,7.0,94,0.00,,,0.04,Wunderground v.1.15,2013-02-23 19:04:00,
2013-02-23 14:10:00,36.8,35.2,29.81,SSW,192,3.0,7.0,94,0.00,,,0.04,Wunderground v.1.15,2013-02-23 19:10:00,
2013-02-23 14:16:00,36.9,35.3,29.81,SSW,195,4.0,7.0,94,0.00,,,0.04,Wunderground v.1.15,2013-02-23 19:16:00,
2013-02-23 14:22:00,36.9,35.3,29.80,South,186,4.0,7.0,94,0.00,,,0.04,Wunderground v.1.15,2013-02-23 19:22:00,
2013-02-23 14:28:00,36.9,35.3,29.80,SSW,202,5.0,7.0,94,0.00,,,0.04,Wunderground v.1.15,2013-02-23 19:28:00,
2013-02-23 14:34:00,36.9,35.3,29.80,SSW,200,4.0,7.0,94,0.00,,,0.04,Wunderground v.1.15,2013-02-23 19:34:00,
2013-02-23 14:40:00,36.9,35.3,29.80,South,190,3.0,7.0,94,0.00,,,0.04,Wunderground v.1.15,2013-02-23 19:40:00,
2013-02-23 14:46:00,36.9,35.3,29.80,SSW,192,3.0,7.0,94,0.00,,,0.04,Wunderground v.1.15,2013-02-23 19:46:00,
2013-02-23 14:52:00,36.9,35.3,29.80,SSW,206,3.0,7.0,94,0.00,,,0.04,Wunderground v.1.15,2013-02-23 19:52:00,
2013-02-23 14:58:00,36.9,35.3,29.80,SSW,196,3.0,7.0,94,0.00,,,0.05,Wunderground v.1.15,2013-02-23 19:58:00,
2013-02-23 15:04:00,36.9,35.6,29.80,SSW,192,2.0,7.0,95,0.00,,,0.05,Wunderground v.1.15,2013-02-23 20:04:00,
2013-02-23 15:10:00,37.0,35.4,29.80,SSW,196,3.0,7.0,94,0.00,,,0.05,Wunderground v.1.15,2013-02-23 20:10:00,
2013-02-23 15:16:00,37.0,35.7,29.80,SSW,192,3.0,7.0,95,0.00,,,0.05,Wunderground v.1.15,2013-02-23 20:16:00,
2013-02-23 15:22:00,37.0,35.7,29.79,South,187,4.0,7.0,95,0.00,,,0.05,Wunderground v.1.15,2013-02-23 20:22:00,
2013-02-23 15:28:00,37.0,35.7,29.79,South,188,4.0,7.0,95,0.00,,,0.05,Wunderground v.1.15,2013-02-23 20:28:00,
2013-02-23 15:34:00,36.9,35.6,29.79,South,182,4.0,8.0,95,0.00,,,0.05,Wunderground v.1.15,2013-02-23 20:34:00,
2013-02-23 15:39:00,36.8,35.5,29.79,SSW,192,5.0,5.0,95,0.00,,,0.05,Wunderground v.1.15,2013-02-23 20:39:00,
2013-02-23 15:46:00,36.8,35.5,29.79,South,188,5.0,7.0,95,0.00,,,0.05,Wunderground v.1.15,2013-02-23 20:46:00,
2013-02-23 15:52:00,36.8,35.5,29.79,South,182,5.0,7.0,95,0.00,,,0.05,Wunderground v.1.15,2013-02-23 20:52:00,
2013-02-23 15:58:00,36.8,35.5,29.78,South,188,5.0,7.0,95,0.00,,,0.05,Wunderground v.1.15,2013-02-23 20:58:00,
2013-02-23 16:03:00,36.8,35.8,29.78,South,171,4.0,8.0,96,0.00,,,0.05,Wunderground v.1.15,2013-02-23 21:03:00,
2013-02-23 16:10:00,36.7,35.7,29.78,South,178,3.0,3.0,96,0.00,,,0.05,Wunderground v.1.15,2013-02-23 21:10:00,
2013-02-23 16:16:00,36.6,35.6,29.78,South,176,2.0,8.0,96,0.00,,,0.05,Wunderground v.1.15,2013-02-23 21:16:00,
2013-02-23 16:22:00,36.6,35.6,29.78,South,180,2.0,8.0,96,0.00,,,0.05,Wunderground v.1.15,2013-02-23 21:22:00,
2013-02-23 16:28:00,36.6,35.8,29.78,SSW,200,3.0,8.0,97,0.00,,,0.05,Wunderground v.1.15,2013-02-23 21:28:00,
2013-02-23 16:33:00,36.7,35.9,29.78,SSW,209,4.0,8.0,97,0.00,,,0.05,Wunderground v.1.15,2013-02-23 21:33:00,
2013-02-23 16:39:00,36.8,36.0,29.78,SSW,197,4.0,8.0,97,0.00,,,0.05,Wunderground v.1.15,2013-02-23 21:39:00,
2013-02-23 16:46:00,36.9,36.1,29.78,SSW,207,3.0,8.0,97,0.00,,,0.05,Wunderground v.1.15,2013-02-23 21:46:00,
2013-02-23 16:52:00,36.9,36.1,29.78,SSW,202,3.0,8.0,97,0.00,,,0.05,Wunderground v.1.15,2013-02-23 21:52:00,
2013-02-23 16:57:00,36.9,36.1,29.77,SSW,194,3.0,8.0,97,0.00,,,0.05,Wunderground v.1.15,2013-02-23 21:57:00,
2013-02-23 17:04:00,36.9,36.4,29.77,SSW,192,4.0,7.0,98,0.00,,,0.05,Wunderground v.1.15,2013-02-23 22:04:00,
2013-02-23 17:10:00,36.9,36.1,29.77,SSW,195,4.0,4.0,97,0.00,,,0.05,Wunderground v.1.15,2013-02-23 22:10:00,
2013-02-23 17:16:00,36.9,36.1,29.78,SSW,204,4.0,7.0,97,0.00,,,0.05,Wunderground v.1.15,2013-02-23 22:16:00,
2013-02-23 17:21:00,37.0,36.5,29.78,SSW,200,3.0,7.0,98,0.00,,,0.05,Wunderground v.1.15,2013-02-23 22:21:00,
2013-02-23 17:28:00,37.0,36.5,29.78,SSW,204,3.0,7.0,98,0.00,,,0.05,Wunderground v.1.15,2013-02-23 22:28:00,
2013-02-23 17:33:00,37.0,36.5,29.78,SW,215,3.0,7.0,98,0.00,,,0.05,Wunderground v.1.15,2013-02-23 22:33:00,
2013-02-23 17:40:00,36.9,36.4,29.78,SW,221,3.0,3.0,98,0.00,,,0.05,Wunderground v.1.15,2013-02-23 22:40:00,
2013-02-23 17:46:00,36.9,36.4,29.78,SSW,200,1.0,7.0,98,0.00,,,0.05,Wunderground v.1.15,2013-02-23 22:46:00,
2013-02-23 17:51:00,36.9,36.4,29.78,SW,219,1.0,7.0,98,0.00,,,0.05,Wunderground v.1.15,2013-02-23 22:51:00,
2013-02-23 17:58:00,36.8,36.3,29.77,SW,219,0.0,7.0,98,0.00,,,0.05,Wunderground v.1.15,2013-02-23 22:58:00,
2013-02-23 18:04:00,36.8,36.3,29.77,SW,219,0.0,7.0,98,0.00,,,0.05,Wunderground v.1.15,2013-02-23 23:04:00,
2013-02-23 18:10:00,36.9,36.4,29.77,SW,219,0.0,7.0,98,0.00,,,0.05,Wunderground v.1.15,2013-02-23 23:10:00,
2013-02-23 18:16:00,36.9,36.4,29.78,SW,219,0.0,7.0,98,0.00,,,0.05,Wunderground v.1.15,2013-02-23 23:16:00,
2013-02-23 18:22:00,36.9,36.4,29.78,SW,219,0.0,7.0,98,0.00,,,0.05,Wunderground v.1.15,2013-02-23 23:22:00,
2013-02-23 18:28:00,36.9,36.4,29.78,SW,219,0.0,7.0,98,0.00,,,0.05,Wunderground v.1.15,2013-02-23 23:28:00,
2013-02-23 18:33:00,36.9,36.0,29.78,SW,219,0.0,0.0,98,0.00,,,0.05,weatherlink.com 1.10,2013-02-23 23:33:00,
2013-02-23 18:40:00,36.8,36.3,29.78,SSW,202,1.0,7.0,98,0.00,,,0.05,Wunderground v.1.15,2013-02-23 23:40:00,
2013-02-23 18:46:00,36.9,36.4,29.78,SSW,198,2.0,7.0,98,0.00,,,0.05,Wunderground v.1.15,2013-02-23 23:46:00,
2013-02-23 18:52:00,36.9,36.4,29.78,SSW,198,2.0,7.0,98,0.00,,,0.05,Wunderground v.1.15,2013-02-23 23:52:00,
2013-02-23 18:58:00,36.9,36.4,29.78,SSW,200,1.0,7.0,98,0.00,,,0.05,Wunderground v.1.15,2013-02-23 23:58:00,
2013-02-23 19:03:00,36.9,36.0,29.78,SSW,202,2.0,3.0,98,0.00,,,0.05,weatherlink.com 1.10,2013-02-24 00:03:00,
2013-02-23 19:10:00,36.9,36.4,29.78,SSW,198,2.0,2.0,98,0.00,,,0.05,Wunderground v.1.15,2013-02-24 00:10:00,
2013-02-23 19:16:00,36.8,36.3,29.78,SSW,202,1.0,4.0,98,0.00,,,0.05,Wunderground v.1.15,2013-02-24 00:16:00,
2013-02-23 19:22:00,36.8,36.3,29.78,SSW,207,1.0,4.0,98,0.00,,,0.05,Wunderground v.1.15,2013-02-24 00:22:00,
2013-02-23 19:27:00,36.8,36.3,29.78,SSW,212,2.0,4.0,98,0.00,,,0.05,Wunderground v.1.15,2013-02-24 00:27:00,
2013-02-23 19:34:00,36.8,36.3,29.78,SSW,201,2.0,4.0,98,0.00,,,0.05,Wunderground v.1.15,2013-02-24 00:34:00,
2013-02-23 19:40:00,36.8,36.3,29.78,SSW,210,1.0,1.0,98,0.00,,,0.05,Wunderground v.1.15,2013-02-24 00:40:00,
2013-02-23 19:46:00,36.8,36.3,29.79,SW,217,0.0,4.0,98,0.00,,,0.05,Wunderground v.1.15,2013-02-24 00:46:00,
2013-02-23 19:51:00,36.8,36.3,29.79,SW,227,1.0,4.0,98,0.00,,,0.05,Wunderground v.1.15,2013-02-24 00:51:00,
2013-02-23 19:58:00,36.7,36.2,29.79,WNW,288,1.0,4.0,98,0.00,,,0.05,Wunderground v.1.15,2013-02-24 00:58:00,
2013-02-23 20:03:00,36.6,36.0,29.78,WNW,290,1.0,3.0,98,0.00,,,0.05,weatherlink.com 1.10,2013-02-24 01:03:00,
2013-02-23 20:10:00,36.6,36.1,29.78,WSW,241,1.0,1.0,98,0.00,,,0.05,Wunderground v.1.15,2013-02-24 01:10:00,
2013-02-23 20:16:00,36.7,36.2,29.78,WSW,254,1.0,4.0,98,0.00,,,0.05,Wunderground v.1.15,2013-02-24 01:16:00,
2013-02-23 20:22:00,36.7,36.2,29.78,WSW,254,0.0,4.0,98,0.00,,,0.05,Wunderground v.1.15,2013-02-24 01:22:00,
2013-02-23 20:28:00,36.7,35.9,29.78,WSW,254,0.0,4.0,97,0.00,,,0.05,Wunderground v.1.15,2013-02-24 01:28:00,
2013-02-23 20:34:00,36.7,35.9,29.78,WSW,254,0.0,4.0,97,0.00,,,0.05,Wunderground v.1.15,2013-02-24 01:34:00,
2013-02-23 20:39:00,36.7,35.9,29.78,WSW,254,0.0,4.0,97,0.00,,,0.05,Wunderground v.1.15,2013-02-24 01:39:00,
2013-02-23 20:46:00,36.7,35.9,29.78,WSW,254,0.0,4.0,97,0.00,,,0.05,Wunderground v.1.15,2013-02-24 01:46:00,
2013-02-23 20:52:00,36.7,35.9,29.78,WSW,245,0.0,4.0,97,0.00,,,0.05,Wunderground v.1.15,2013-02-24 01:52:00,
2013-02-23 20:58:00,36.8,36.0,29.78,SSW,210,0.0,4.0,97,0.00,,,0.05,Wunderground v.1.15,2013-02-24 01:58:00,
2013-02-23 21:03:00,36.8,36.0,29.78,SSW,210,0.0,2.0,97,0.00,,,0.05,Wunderground v.1.15,2013-02-24 02:03:00,
2013-02-23 21:10:00,36.8,36.0,29.78,WSW,246,0.0,2.0,97,0.00,,,0.05,Wunderground v.1.15,2013-02-24 02:10:00,
2013-02-23 21:16:00,36.8,36.0,29.78,SW,236,0.0,2.0,97,0.00,,,0.05,Wunderground v.1.15,2013-02-24 02:16:00,
2013-02-23 21:21:00,36.8,36.0,29.78,SW,229,1.0,2.0,97,0.00,,,0.05,Wunderground v.1.15,2013-02-24 02:21:00,
2013-02-23 21:28:00,36.8,36.0,29.78,West,276,1.0,2.0,97,0.00,,,0.05,Wunderground v.1.15,2013-02-24 02:28:00,
2013-02-23 21:34:00,36.8,36.0,29.77,NW,313,1.0,4.0,97,0.00,,,0.05,Wunderground v.1.15,2013-02-24 02:34:00,
2013-02-23 21:39:00,36.9,35.9,29.77,West,277,2.0,2.0,96,0.00,,,0.05,Wunderground v.1.15,2013-02-24 02:39:00,
2013-02-23 21:46:00,36.9,35.9,29.77,WNW,289,2.0,3.0,96,0.00,,,0.05,Wunderground v.1.15,2013-02-24 02:46:00,
2013-02-23 21:52:00,37.0,36.0,29.77,NW,326,3.0,3.0,96,0.00,,,0.05,Wunderground v.1.15,2013-02-24 02:52:00,
2013-02-23 21:58:00,36.8,35.5,29.77,NW,322,4.0,5.0,95,0.00,,,0.05,Wunderground v.1.15,2013-02-24 02:58:00,
2013-02-23 22:04:00,36.2,34.9,29.77,NW,315,4.0,6.0,95,0.00,,,0.05,Wunderground v.1.15,2013-02-24 03:04:00,
2013-02-23 22:10:00,35.4,34.4,29.76,North,351,4.0,4.0,96,0.00,,,0.05,Wunderground v.1.15,2013-02-24 03:10:00,
2013-02-23 22:16:00,34.3,33.3,29.76,North,355,3.0,5.0,96,0.00,,,0.05,Wunderground v.1.15,2013-02-24 03:16:00,
2013-02-23 22:22:00,33.2,32.2,29.75,North,355,3.0,5.0,96,0.00,,,0.05,Wunderground v.1.15,2013-02-24 03:22:00,
2013-02-23 22:28:00,32.7,31.7,29.76,North,355,4.0,5.0,96,0.00,,,0.05,Wunderground v.1.15,2013-02-24 03:28:00,
2013-02-23 22:34:00,32.5,31.5,29.76,NNW,332,3.0,5.0,96,0.00,,,0.05,Wunderground v.1.15,2013-02-24 03:34:00,
2013-02-23 22:40:00,32.3,31.3,29.77,NNW,344,2.0,5.0,96,0.00,,,0.05,Wunderground v.1.15,2013-02-24 03:40:00,
2013-02-23 22:45:00,32.0,31.0,29.77,NNW,344,2.0,5.0,96,0.00,,,0.05,Wunderground v.1.15,2013-02-24 03:45:00,
2013-02-23 22:52:00,31.9,30.9,29.77,NNW,343,2.0,5.0,96,0.00,,,0.05,Wunderground v.1.15,2013-02-24 03:52:00,
2013-02-23 22:58:00,31.7,30.7,29.77,NNW,346,3.0,5.0,96,0.00,,,0.05,Wunderground v.1.15,2013-02-24 03:58:00,
2013-02-23 23:03:00,31.5,30.5,29.76,NNW,333,3.0,6.0,96,0.00,,,0.05,Wunderground v.1.15,2013-02-24 04:03:00,
2013-02-23 23:10:00,31.5,30.5,29.76,NNW,346,2.0,6.0,96,0.00,,,0.05,Wunderground v.1.15,2013-02-24 04:10:00,
2013-02-23 23:15:00,31.4,30.4,29.76,North,355,2.0,6.0,96,0.00,,,0.05,Wunderground v.1.15,2013-02-24 04:15:00,
2013-02-23 23:21:00,31.4,30.0,29.76,North,355,2.0,4.0,96,0.00,,,0.05,weatherlink.com 1.10,2013-02-24 04:21:00,
2013-02-23 23:27:00,31.2,30.2,29.76,North,355,2.0,6.0,96,0.00,,,0.05,Wunderground v.1.15,2013-02-24 04:27:00,
2013-02-23 23:34:00,31.2,30.2,29.77,North,360,2.0,6.0,96,0.00,,,0.05,Wunderground v.1.15,2013-02-24 04:34:00,
2013-02-23 23:40:00,31.1,30.1,29.77,North,350,2.0,2.0,96,0.00,,,0.05,Wunderground v.1.15,2013-02-24 04:40:00,
2013-02-23 23:46:00,31.1,30.1,29.77,NNW,336,3.0,6.0,96,0.00,,,0.05,Wunderground v.1.15,2013-02-24 04:46:00,
2013-02-23 23:52:00,30.9,29.6,29.77,North,9,3.0,6.0,95,0.00,,,0.05,Wunderground v.1.15,2013-02-24 04:52:00,
2013-02-23 23:58:00,30.7,29.4,29.76,North,9,4.0,6.0,95,0.00,,,0.05,Wunderground v.1.15,2013-02-24 04:58:00,